Home   Weather   Bornheim (Rheinland)   Past weeks

Flag for Germany Past Weather in Bornheim (Rheinland), North Rhine-Westphalia, Germany — Yesterday and Last 2 Weeks

Now
57 °F

Clear.


Feels Like: 57 °F
Forecast: 51 / 77 °F
Wind: 3 mph from Southwest

Location: Aachen-Orsbach

Current Time: Sep 1, 2016 at 5:47:54 AM

Latest Report: Sep 1, 2016 at 4:00 AM


Visibility: 4 mi

Pressure: 30.19 "Hg

Humidity: 86%

Dew Point: 53 °F

Location of Bornheim (Rheinland)Location

Past Weather in Bornheim (Rheinland) — Graph

°F

Bornheim (Rheinland) Temperature Yesterday

Maximum temperature yesterday: 76 °F (at 3:00 PM)
Minimum temperature yesterday: 56 °F (at 6:00 AM)
Average temperature yesterday: 66 °F

High & Low Weather Summary for the Past Weeks

 TemperatureHumidityPressure
High90 °F (Aug 25, 3:00 PM)98% (Aug 30, 7:00 AM)30.33 "Hg (Aug 30, 7:00 AM)
Low52 °F (Aug 17, 4:00 AM)36% (Aug 24, 4:00 PM)29.79 "Hg (Aug 18, 9:00 AM)
Average69 °F67%30.03 "Hg
* Reported Aug 17 4:00 AM — Sep 1 4:00 AM, Bornheim (Rheinland), Weather by CustomWeather, © 2016

Note: Actual official high and low records may vary slightly from our data, if they occured in-between our weather recording intervals... More about our weather records

Advertising

Bornheim (Rheinland) Weather History for the Previous 24 Hours

Scroll right to see more
 ConditionsComfort  
Time TempWeatherWind HumidityBarometerVisibility
4:00 AM
Thu, Sep 1
57 °FClear.3 mph86%30.19 "Hg4 mi
3:00 AM59 °FClear.3 mph83%30.19 "Hg4 mi
1:00 AM62 °FPassing clouds.3 mph76%30.17 "Hg8 mi
12:00 AM62 °FPassing clouds.3 mph74%30.16 "Hg16 mi
10:00 PM
Wed, Aug 31
64 °FOvercast.1 mph67%30.15 "Hg22 mi
9:00 PM66 °FPassing clouds.1 mph67%30.14 "Hg11 mi
7:00 PM73 °FHaze.3 mph54%30.11 "Hg17 mi
6:00 PM75 °FPassing clouds.5 mph49%30.11 "Hg17 mi
4:00 PM75 °FPartly sunny.5 mph50%30.11 "Hg31 mi
3:00 PM76 °FScattered clouds.5 mph46%30.11 "Hg31 mi
1:00 PM72 °FPassing clouds.3 mph52%30.13 "Hg31 mi
12:00 PM72 °FPassing clouds.6 mph54%30.14 "Hg31 mi
10:00 AM70 °FPassing clouds.3 mph54%30.13 "Hg31 mi
9:00 AM67 °FPassing clouds.6 mph58%30.14 "Hg10 mi
7:00 AM59 °FSunny.2 mph68%30.15 "Hg31 mi
6:00 AM56 °FClear.3 mph76%30.16 "Hg31 mi
Weather by CustomWeather, © 2016

See weather overviewHow to use our weather pages